Погода в Брызгалове

Россия / Удмуртская Республика     56°42′51″N   51°29′59″E
темп.,
°C
ветер,
м/с
пор.,
м/с
влажн.,
%
обл.,
%
осадки,
мм/ч
давл.,
гПа
погр.,
м
14 июня, пн
пн1401:00+15ююв379474 0.0 1014123
04:00+15ю368994 0.0 1015128
07:00+19ю4781100 0.0 1015276
10:00+22ююз4668100 0.0 1015680
13:00+25ююз5754100 0.0 10151563
16:00+25зюз4663100 0.0 10151255
19:00+23зюз3575100 0.0 1014206
22:00+19зюз2288100 0.3 101537
15 июня, вт
вт1501:00+17зюз2292100 0.0 101530
04:00+16сз119281 0.0 101411
07:00+19ссв128454 0.0 1015167
10:00+24вюв226149 0.0 1014720
13:00+26вюв2153100 0.0 10131371
16:00+25ююв436176 0.1 1013820
19:00+22ююз368499 0.9 1013234
22:00+18юз239190 0.9 101351
16 июня, ср
ср1601:00+18ююз2292100 0.4 101221
04:00+17ю229099 0.4 101232
07:00+20ююв358344 0.0 1012202
10:00+25юв455766 0.0 1010747
13:00+27юв5550100 0.0 1009975
16:00+28юв465314 0.0 10071347
19:00+26юв23675 0.0 100693
22:00+20ююз35891 0.1 100580
17 июня, чт
чт1701:00+17с61396100 6.4 1006403
04:00+16ссз5109891 8.3 1008519
07:00+14ссз61195100 0.1 1011739
10:00+18с811550 0.1 10121316
13:00+20ссз79475 0.0 10142125
16:00+21ссз794864 0.0 10142592
19:00+18ссз59605 0.0 1017678
22:00+13сз39775 0.0 1019194
18 июня, пт
пт1801:00+11ссз411805 0.0 1020223
04:00+10ссз39805 0.0 1022172
07:00+14с410695 0.0 1023440
10:00+18с57510 0.0 10231487
13:00+21ссз57445 0.0 10232047
16:00+21ссз56435 0.0 10231821
19:00+19ссз37606 0.0 1023329
22:00+14зсз2269100 0.0 102419